Location: *
(44.3925°N, 5.4708°E)
Time: 03:04:39
(UTC+00:00)

Cosmos 1300 Rocket - Pass Details

Date: 18 September 2019
Orbit: 603 x 626 km, 82.5° (Epoch: 20 October)

Event Time Altitude Azimuth Distance (km) Brightness Sun altitude
Rises 18:10:55 0° 183° (S) 2,846 6.9 -5.6°
Reaches altitude 10° 18:13:07 10° 182° (S) 1,946 6.1 -6.0°
Maximum altitude 18:17:25 77° 97° (E) 624 3.5 -6.8°
Drops below altitude 10° 18:21:44 10° 11° (NNE) 1,958 6.1 -7.6°
Sets 18:23:57 0° 10° (N) 2,866 7.0 -7.9°
